Regional Weather Roundup
Issued by NWS

Home | Current Version | Previous Version | Graphics & Text | Print | Product List | Glossary Off
Versions: 1 2 3 4 5 6 7 8 9 10 11 12 13 14 15 16 17 18 19 20 21 22 23 24 25 26 27 28 29 30 31 32 33 34 35 36 37 38 39 40 41 42 43 44 45 46 47 48 49 50

000
ASUS43 KMKX 230500
RWRWI

WISCONSIN REGIONAL WEATHER ROUNDUP
NATIONAL WEATHER SERVICE MILWAUKEE/SULLIVAN WI
1200 AM CDT SUN JUL 23 2017

NOTE: "FAIR" INDICATES FEW OR NO CLOUDS BELOW 12,000 FEET WITH NO
SIGNIFICANT WEATHER AND/OR OBSTRUCTIONS TO VISIBILITY.

WIZ001-002-006>008-014>016-023>028-230600-
NORTHWEST WISCONSIN

CITY           SKY/WX    TMP DP  RH WIND       PRES   REMARKS
SUPERIOR ARPT  NOT AVBL
ASHLAND        CLOUDY    60  59  96 CALM      29.84R
HAYWARD        CLEAR     61  59  93 CALM      29.84S FOG
SIREN          CLEAR     64  56  73 CALM      29.84S
CUMBERLAND     CLEAR     66  54  63 CALM      29.85S
RICE LAKE      CLEAR     69  56  63 W3        29.86R
CHETEK         CLEAR     72  60  64 NW5       29.84S
LADYSMITH      CLEAR     68  64  88 NW3       29.86R
EAU CLAIRE     NOT AVBL
MENOMONIE      CLEAR     72  62  72 W5        29.84S
NEW RICHMOND   CLEAR     66  63  87 CALM      29.85S
OSCEOLA        CLEAR     66  62  86 SE3       29.87R
$$

WIZ003>005-009-010-017-018-230600-
NORTH CENTRAL WISCONSIN

CITY           SKY/WX    TMP DP  RH WIND       PRES   REMARKS
MANITOWISH WTR TSTM      65  65 100 W8        29.86R
ARBOR VITAE    CLOUDY    67  64  89 CALM      29.82R THUNDER
WOODRUFF       CLOUDY    67  64  89 CALM      29.82R THUNDER
RHINELANDER    FOG       60  60 100 NW3       29.83S VSB 1
EAGLE RIVER    MOCLDY    65  64  96 CALM      29.82S
LAND O LAKES   PTCLDY    63  63 100 CALM      29.84S
PHILLIPS       PTCLDY    63  63 100 CALM      29.84S
TOMAHAWK         N/A     61  60  96 CALM      29.83R
MEDFORD        PTCLDY    66  64  93 W3        29.83S
MERRILL        CLEAR     67  67  99 SW3       29.82R
$$

WIZ029-030-035-036-043>047-230600-
CENTRAL WISCONSIN

CITY           SKY/WX    TMP DP  RH WIND       PRES   REMARKS
WAUSAU         CLEAR     72  67  84 NW6       29.80R
MOSINEE        CLEAR     70  68  94 W7        29.83R
MARSHFIELD     CLEAR     69  65  86 NW6       29.82S
STEVENS POINT  PTCLDY    73  68  83 W6        29.81S
WAUPACA        PTCLDY    74  72  92 W3        29.79R
WAUTOMA        PTCLDY    73  71  93 W6        29.81R
WISC RAPIDS    CLEAR     72  67  84 W7        29.83R
CAMP DOUGLAS   NOT AVBL
$$

WIZ011>013-019>022-031-037>040-048>050-230600-
NORTHEAST WISCONSIN

CITY           SKY/WX    TMP DP  RH WIND       PRES   REMARKS
ANTIGO         PTCLDY    66  65  97 CALM      29.82S
SHAWANO        CLOUDY    71  68  92 CALM      29.78R FOG
OCONTO         CLOUDY    66  64  94 SE5       29.79R
STURGEON BAY   LGT RAIN  68  66  93 N5        29.83R
GREEN BAY      TSTM      69  69 100 VRB6      29.79F FOG
MANITOWOC      NOT AVBL
APPLETON       CLOUDY    70  68  94 SW7       29.78S
CLINTONVILLE   CLOUDY    73  68  83 SW3       29.78R
OSHKOSH        LGT RAIN  74  70  87 NW6       29.79R
$$

WIZ032>034-041-042-053>061-230600-
SOUTHWEST WISCONSIN

CITY           SKY/WX    TMP DP  RH WIND       PRES   REMARKS
LA CROSSE      CLOUDY    71  68  90 CALM      29.83S
SPARTA         PTCLDY    65  64  96 CALM      29.85R
VIROQUA        CLOUDY    68  68  99 W6        29.85F
BOSCOBEL       CLOUDY    74  72  93 S5        29.82S
PRAIRIE DU CHI PTCLDY    73  71  94 CALM      29.82F
PLATTEVILLE    CLOUDY    74  74 100 CALM      29.83F
$$

WIZ056-057-062-063-064-067-068-230600-
SOUTH CENTRAL WISCONSIN

CITY           SKY/WX    TMP DP  RH WIND       PRES   REMARKS
REEDSBURG      MOCLDY    72  72 100 CALM      29.81F
BARABOO/DELLS  MOCLDY    72  69  92 S6        29.81F
LONE ROCK      PTCLDY    71  69  93 SW5       29.81S
MINERAL POINT  PTCLDY    73  73 100 SW6       29.83F
MADISON        CLEAR     69  68  96 W3        29.81R FOG
MIDDLETON        N/A     68  68 100 CALM      29.83S VSB 1
WATERTOWN      CLEAR     67  67 100 CALM      29.81S
MONROE         PTCLDY    73  70  88 SW3       29.82F
JANESVILLE     PTCLDY    73  73 100 CALM      29.81S
$$

WIZ051-052-058>065-066-070>072-230600-
SOUTHEAST WISCONSIN

CITY           SKY/WX    TMP DP  RH WIND       PRES   REMARKS
MILWAUKEE      PTCLDY    72  69  90 SW5       29.80F
WAUKESHA       PTCLDY    68  68 100 S5        29.82F
MILWAUKEE/TIMM CLEAR     68  63  83 CALM      29.81F
RACINE         PTCLDY    70  70 100 S3        29.81F FOG
KENOSHA        PTCLDY    72  70  93 SW5       29.81F
FOND DU LAC    PTCLDY    74  68  81 SW6       29.79S
SHEBOYGAN      PTCLDY    68  67  96 CALM      29.79R
WEST BEND      CLEAR     68  68 100 S5        29.80F FOG
JUNEAU         CLEAR     70  68  93 S5        29.81F
$$

LSZ147-162-230600-
LAKE SUPERIOR

STATION/POSITION TIME  TEMP    WIND        PRES    WAVE
                       AIR SEA DIR/SP/G            HT/PER
                 (UTC) (F)     (DEG/KT/KT) (MB)    (FT/S)
W MID LAKE BUOY  0350   50 48   60/ 12/ 14 1009.3F   2/ 5
DEVILS ISLAND    0400   54      70/ 13/ 14 1010.7R
PORT WING        0240   57      40/  6/ 17 1010.2R
SAXON HARBOR     0430   58     200/  2/  6 1009.1F
$$

LMZ867-665-643>646-230600-
LAKE MICHIGAN

STATION/POSITION TIME  TEMP    WIND        PRES    WAVE
                       AIR SEA DIR/SP/G            HT/PER
                 (UTC) (F)     (DEG/KT/KT) (MB)    (FT/S)
CHAMBERS ISLAND  0440   71     170/  6/ 12 1008.1F
S GREEN BAY BUOY 0430   67 73  180/ 19/ 21 1008.8R
N MID LAKE BUOY  0350   69 69     CALM     1009.6R   0
NORTHPORT PIER   0440   68     160/  8/ 11 1008.5F
KEWAUNEE LAKESHO 0424   67     340/ 16/ 23 1008.6
SHEBOYGAN LAKESH 0400   70     190/  6/  7 1008.1F
PORT WASHINGTON  0430   70      CALM  /  4 1009.8F
ATWATER BUOY     0309   70 69  180/  6/  8 1009.6F
MILWAUKEE LAKESH 0430   71     170/  4/  4   N/A
S MID LAKE BUOY  0350   70 70  120/  4/  4 1009.2F   0
KENOSHA   LAKESH 0400   72     140/  1/  1 1009.1
$$

TC  - TEMPERATURE IN CELSIUS
VSB - VISIBILITY IN STATUTE MILES
WCI - WIND CHILL INDEX
HX  - HEAT INDEX





USA.gov is the U.S. government's official web portal to all federal, state and local government web resources and services.